Adrian, MI

6:50 AM EDT on June 25, 2017 (GMT -0400)
Lenawee County

Weather History for KADG - January, 2013

Change the Weather History Date:

Tuesday, January 1, 2013

  Actual Average Record
Temperature  
Mean Temperature 20 °F -  
Max Temperature 27 °F 32 °F 51 °F (2011)
Min Temperature 12 °F 16 °F -8 °F (1968)
Degree Days  
Heating Degree Days 46    
Moisture  
Dew Point 12 °F    
Average Humidity 66    
Maximum Humidity 74    
Minimum Humidity 50    
Precipitation  
Precipitation 0.00 in - - ()
Sea Level Pressure  
Sea Level Pressure 30.11 in    
Wind  
Wind Speed 6 mph (NNW)    
Max Wind Speed 14 mph    
Max Gust Speed -    
Visibility 10 miles    
Events      
Averages and records for this station are not official NWS values.
T = Trace of Precipitation, MM = Missing Value Source: NWS Daily Summary

Daily Weather History Graph

Daily Weather History Graph

Search for Another Location

Airport or City:

Trip Planner

Search our weather history database for the weather conditions in past years. The results will help you decide how hot, cold, wet, or windy it might be!

Date:

Astronomy

Jan. 01, 2013 Rise Set
Actual Time 8:03 AM EST 5:16 PM EST
Civil Twilight 7:32 AM EST 5:47 PM EST
Nautical Twilight 6:57 AM EST 6:22 PM EST
Astronomical Twilight 6:23 AM EST 6:56 PM EST
Moon 9:50 PM EST (1/1) 10:11 AM EST (1/1)
Length of Visible Light 10h 15m
Length of Day
9h 12m
Waning Gibbous, 83% of the Moon is Illuminated
Jan 1
Waning Gibbous
Jan 4
Last Quarter
Jan 11
New
Jan 18
First Quarter
Jan 26
Full

Hourly Weather History & Observations

Time (EST) Temp. Windchill Dew Point Humidity Pressure Visibility Wind Dir Wind Speed Gust Speed Precip Events Conditions
12:53 AM 27.0 °F 19.5 °F 18.0 °F 69% 30.07 in 10.0 mi NNW 6.9 mph - N/A   Mostly Cloudy
1:53 AM 27.0 °F 18.7 °F 16.0 °F 63% 30.06 in 10.0 mi NNW 8.1 mph - N/A   Overcast
2:53 AM 27.0 °F 18.7 °F 18.0 °F 69% 30.07 in 10.0 mi NNW 8.1 mph - N/A   Overcast
3:30 AM 26.6 °F 20.0 °F 17.6 °F 69% 30.04 in 10.0 mi NW 5.8 mph - N/A   Overcast
3:43 AM 26.6 °F 20.0 °F 17.6 °F 69% 30.03 in 10.0 mi NNW 5.8 mph - N/A   Overcast
3:53 AM 27.0 °F 21.6 °F 19.0 °F 72% 30.07 in 10.0 mi NNW 4.6 mph - N/A   Overcast
4:36 AM 26.6 °F 18.2 °F 15.8 °F 64% 30.05 in 10.0 mi North 8.1 mph - N/A   Overcast
4:53 AM 26.1 °F 21.9 °F 15.1 °F 63% 30.08 in 10.0 mi North 3.5 mph - N/A   Overcast
5:25 AM 24.8 °F 20.5 °F 15.8 °F 69% 30.06 in 10.0 mi NW 3.5 mph - N/A   Overcast
5:53 AM 25.0 °F 17.1 °F 15.1 °F 66% 30.09 in 10.0 mi North 6.9 mph - N/A   Overcast
6:53 AM 21.0 °F 12.4 °F 14.0 °F 74% 30.10 in 10.0 mi North 6.9 mph - N/A   Partly Cloudy
7:53 AM 19.9 °F 14.9 °F 12.9 °F 74% 30.14 in 10.0 mi North 3.5 mph - N/A   Partly Cloudy
8:53 AM 19.0 °F 13.9 °F 10.9 °F 71% 30.16 in 10.0 mi NNW 3.5 mph - N/A   Partly Cloudy
9:53 AM 19.9 °F - 10.9 °F 68% 30.18 in 10.0 mi Calm Calm - N/A   Overcast
10:53 AM 21.9 °F 11.0 °F 12.0 °F 66% 30.16 in 10.0 mi NNE 10.4 mph - N/A   Scattered Clouds
11:53 AM 23.0 °F 10.6 °F 12.0 °F 63% 30.15 in 10.0 mi NNE 13.8 mph - N/A   Scattered Clouds
12:00 PM 23.0 °F 12.4 °F 12.2 °F 63% 30.11 in 10.0 mi North 10.4 mph - N/A   Mostly Cloudy
12:22 PM 23.0 °F 13.9 °F 10.4 °F 59% 30.11 in 10.0 mi NNW 8.1 mph - N/A   Overcast
12:53 PM 24.1 °F 18.2 °F 10.0 °F 55% 30.14 in 10.0 mi NW 4.6 mph - N/A   Mostly Cloudy
1:53 PM 24.1 °F 15.2 °F 8.1 °F 51% 30.12 in 10.0 mi North 8.1 mph - N/A   Clear
2:53 PM 23.0 °F 15.8 °F 8.1 °F 53% 30.13 in 10.0 mi NW 5.8 mph - N/A   Clear
3:53 PM 23.0 °F 13.9 °F 7.0 °F 50% 30.14 in 10.0 mi NW 8.1 mph - N/A   Clear
4:53 PM 21.9 °F 12.5 °F 7.0 °F 53% 30.14 in 10.0 mi NNW 8.1 mph - N/A   Clear
5:53 PM 19.9 °F - 7.0 °F 57% 30.14 in 10.0 mi Calm Calm - N/A   Clear
6:53 PM 16.0 °F - 7.0 °F 68% 30.14 in 10.0 mi Calm Calm - N/A   Partly Cloudy
7:53 PM 12.9 °F 6.9 °F 5.0 °F 71% 30.14 in 10.0 mi WSW 3.5 mph - N/A   Scattered Clouds
8:53 PM 12.9 °F - 6.1 °F 74% 30.15 in 10.0 mi Calm Calm - N/A   Overcast
9:53 PM 16.0 °F 10.4 °F 8.1 °F 71% 30.15 in 10.0 mi WNW 3.5 mph - N/A   Overcast
10:53 PM 19.0 °F 11.1 °F 10.0 °F 68% 30.14 in 10.0 mi NW 5.8 mph - N/A   Scattered Clouds
11:15 PM 17.6 °F 12.3 °F 10.4 °F 73% 30.09 in 10.0 mi West 3.5 mph - N/A   Mostly Cloudy
11:25 PM 15.8 °F 8.6 °F 8.6 °F 73% 30.10 in 10.0 mi WSW 4.6 mph - N/A   Scattered Clouds
11:53 PM 16.0 °F 6.3 °F 9.0 °F 74% 30.14 in 10.0 mi West 6.9 mph - N/A   Clear